| time (UTC) | temp F | wind direction | speed MPH | gust MPH | rain 1hr in | rain 24hr in | rain mn in | humidity % | barometer mb |
| 20260505172727 | 46 | 7 | 8.0 | 18.0 | 0.00 | 0.00 | 0.00 | 84 | 1016.1 |
| 20260505171226 | 47 | 0 | 8.0 | 19.0 | 0.00 | 0.00 | 0.00 | 82 | 1016.1 |
| 20260505170726 | 47 | 27 | 10.0 | 19.0 | 0.00 | 0.00 | 0.00 | 82 | 1016.1 |
| 20260505170228 | 47 | 11 | 11.0 | 19.0 | 0.00 | 0.00 | 0.00 | 82 | 1016.1 |
| 20260505165727 | 47 | 34 | 9.0 | 17.0 | 0.00 | 0.00 | 0.00 | 82 | 1016.0 |
| 20260505165228 | 47 | 358 | 10.0 | 17.0 | 0.00 | 0.00 | 0.00 | 81 | 1016.1 |
| 20260505164728 | 47 | 25 | 11.0 | 20.0 | 0.00 | 0.00 | 0.00 | 82 | 1016.0 |
| 20260505163726 | 47 | 4 | 9.0 | 18.0 | 0.00 | 0.00 | 0.00 | 83 | 1016.1 |
| 20260505163228 | 47 | 6 | 10.0 | 19.0 | 0.00 | 0.00 | 0.00 | 83 | 1016.0 |
| 20260505162726 | 47 | 0 | 10.0 | 20.0 | 0.00 | 0.00 | 0.00 | 83 | 1016.0 |
| 20260505162227 | 47 | 14 | 11.0 | 20.0 | 0.00 | 0.00 | 0.00 | 83 | 1016.0 |
| 20260505161726 | 47 | 353 | 10.0 | 19.0 | 0.00 | 0.00 | 0.00 | 83 | 1016.0 |
| 20260505160728 | 48 | 0 | 9.0 | 21.0 | 0.00 | 0.00 | 0.00 | 82 | 1015.9 |
| 20260505160227 | 48 | 0 | 13.0 | 21.0 | 0.00 | 0.00 | 0.00 | 82 | 1015.8 |
| 20260505153226 | 48 | 0 | 10.0 | 18.0 | 0.00 | 0.00 | 0.00 | 84 | 1015.6 |
| 20260505152728 | 48 | 0 | 10.0 | 20.0 | 0.00 | 0.00 | 0.00 | 85 | 1015.6 |
| 20260505152228 | 48 | 4 | 12.0 | 25.0 | 0.00 | 0.00 | 0.00 | 84 | 1015.5 |
| 20260505151728 | 48 | 355 | 14.0 | 25.0 | 0.00 | 0.00 | 0.00 | 84 | 1015.6 |
| 20260505151227 | 49 | 10 | 12.0 | 21.0 | 0.00 | 0.00 | 0.00 | 84 | 1015.4 |
| 20260505150728 | 49 | 0 | 9.0 | 19.0 | 0.00 | 0.00 | 0.00 | 84 | 1015.5 |
| 20260505150226 | 49 | 354 | 11.0 | 19.0 | 0.00 | 0.00 | 0.00 | 84 | 1015.4 |
| 20260505140227 | 51 | 18 | 10.0 | 18.0 | 0.00 | 0.00 | 0.00 | 78 | 1015.4 |
| 20260505130229 | 50 | 8 | 7.0 | 21.0 | 0.00 | 0.00 | 0.00 | 82 | 1015.1 |
| 20260505124726 | 49 | 0 | 10.0 | 19.0 | 0.00 | 0.00 | 0.00 | 85 | 1015.1 |
| 20260505124228 | 49 | 351 | 12.0 | 19.0 | 0.00 | 0.00 | 0.00 | 86 | 1015.1 |
| 20260505123728 | 49 | 337 | 14.0 | 19.0 | 0.00 | 0.00 | 0.00 | 84 | 1015.1 |
| 20260505123228 | 49 | 1 | 11.0 | 18.0 | 0.00 | 0.00 | 0.00 | 84 | 1015.1 |
| 20260505122228 | 49 | 0 | 9.0 | 19.0 | 0.00 | 0.00 | 0.00 | 85 | 1015.0 |
| 20260505121726 | 49 | 1 | 10.0 | 18.0 | 0.00 | 0.00 | 0.00 | 86 | 1015.0 |
| 20260505121226 | 49 | 357 | 11.0 | 16.0 | 0.00 | 0.00 | 0.00 | 87 | 1015.0 |
| 20260505115228 | 48 | 0 | 9.0 | 15.0 | 0.00 | 0.00 | 0.00 | 88 | 1014.9 |
| 20260505114726 | 49 | 355 | 9.0 | 14.0 | 0.00 | 0.00 | 0.00 | 90 | 1014.8 |
| 20260505114227 | 48 | 37 | 5.0 | 13.0 | 0.00 | 0.00 | 0.00 | 89 | 1014.9 |
| 20260505113226 | 48 | 0 | 9.0 | 16.0 | 0.00 | 0.00 | 0.00 | 89 | 1014.9 |
| 20260505112726 | 48 | 0 | 8.0 | 16.0 | 0.00 | 0.00 | 0.00 | 88 | 1014.8 |
| 20260505112225 | 48 | 337 | 9.0 | 16.0 | 0.00 | 0.00 | 0.00 | 88 | 1014.8 |
| 20260505111727 | 48 | 353 | 8.0 | 16.0 | 0.00 | 0.00 | 0.00 | 87 | 1014.8 |
| 20260505111228 | 48 | 345 | 8.0 | 16.0 | 0.00 | 0.00 | 0.00 | 87 | 1014.8 |
| 20260505110726 | 48 | 0 | 9.0 | 14.0 | 0.00 | 0.00 | 0.00 | 87 | 1014.9 |
| 20260505110227 | 49 | 350 | 7.0 | 13.0 | 0.00 | 0.00 | 0.00 | 89 | 1014.8 |
| 20260505101727 | 51 | 343 | 7.0 | 14.0 | 0.00 | 0.00 | 0.00 | 82 | 1014.5 |
| 20260505101229 | 51 | 344 | 7.0 | 14.0 | 0.00 | 0.00 | 0.00 | 83 | 1014.6 |
| 20260505100728 | 51 | 336 | 5.0 | 11.0 | 0.00 | 0.00 | 0.00 | 82 | 1014.4 |
| 20260505095726 | 50 | 0 | 5.0 | 13.0 | 0.00 | 0.00 | 0.00 | 82 | 1014.5 |
| 20260505095227 | 50 | 347 | 8.0 | 13.0 | 0.00 | 0.00 | 0.00 | 82 | 1014.5 |
| 20260505094728 | 50 | 8 | 7.0 | 12.0 | 0.00 | 0.00 | 0.00 | 81 | 1014.5 |
| 20260505093727 | 51 | 10 | 6.0 | 15.0 | 0.00 | 0.00 | 0.00 | 81 | 1014.5 |
| 20260505093228 | 51 | 4 | 7.0 | 15.0 | 0.00 | 0.00 | 0.00 | 81 | 1014.5 |
| 20260505092727 | 51 | 13 | 7.0 | 14.0 | 0.00 | 0.00 | 0.00 | 81 | 1014.4 |
| 20260505092227 | 51 | 310 | 8.0 | 13.0 | 0.00 | 0.00 | 0.00 | 81 | 1014.3 |
| 20260505091726 | 50 | 3 | 6.0 | 12.0 | 0.00 | 0.00 | 0.00 | 81 | 1014.3 |
| 20260505091228 | 50 | 0 | 5.0 | 12.0 | 0.00 | 0.00 | 0.00 | 81 | 1014.4 |
| 20260505085227 | 51 | 354 | 5.0 | 13.0 | 0.00 | 0.00 | 0.00 | 79 | 1014.3 |
| 20260505084728 | 51 | 0 | 8.0 | 13.0 | 0.00 | 0.00 | 0.00 | 79 | 1014.2 |
| 20260505084226 | 51 | 347 | 6.0 | 11.0 | 0.00 | 0.00 | 0.00 | 80 | 1014.2 |
| 20260505083726 | 51 | 323 | 6.0 | 9.0 | 0.00 | 0.00 | 0.00 | 81 | 1014.1 |
| 20260505083228 | 51 | 353 | 3.0 | 11.0 | 0.00 | 0.00 | 0.00 | 82 | 1014.1 |
| 20260505082726 | 50 | 337 | 5.0 | 13.0 | 0.00 | 0.00 | 0.00 | 82 | 1014.2 |
| 20260505082224 | 50 | 354 | 6.0 | 13.0 | 0.00 | 0.00 | 0.00 | 82 | 1014.2 |
| 20260505081724 | 49 | 330 | 4.0 | 12.0 | 0.00 | 0.00 | 0.00 | 83 | 1014.1 |
| 20260505080227 | 49 | 272 | 3.0 | 8.0 | 0.00 | 0.00 | 0.00 | 83 | 1014.1 |
| 20260505075728 | 49 | 238 | 3.0 | 8.0 | 0.00 | 0.00 | 0.00 | 83 | 1014.2 |
| 20260505075226 | 48 | 320 | 3.0 | 8.0 | 0.00 | 0.00 | 0.00 | 83 | 1014.1 |
| 20260505074729 | 48 | 257 | 4.0 | 8.0 | 0.00 | 0.00 | 0.00 | 83 | 1014.2 |
| 20260505074227 | 48 | 264 | 2.0 | 7.0 | 0.00 | 0.00 | 0.00 | 84 | 1014.2 |
| 20260505073228 | 48 | 288 | 2.0 | 9.0 | 0.00 | 0.00 | 0.00 | 84 | 1014.2 |
| 20260505072725 | 48 | 237 | 4.0 | 9.0 | 0.00 | 0.00 | 0.00 | 84 | 1014.2 |
| 20260505072226 | 47 | 216 | 4.0 | 9.0 | 0.00 | 0.00 | 0.00 | 85 | 1014.2 |
| 20260505071226 | 47 | 247 | 4.0 | 9.0 | 0.00 | 0.00 | 0.00 | 85 | 1014.1 |
| 20260505070225 | 47 | 281 | 4.0 | 11.0 | 0.00 | 0.00 | 0.00 | 87 | 1014.1 |
| 20260505065727 | 46 | 199 | 4.0 | 8.0 | 0.00 | 0.00 | 0.00 | 88 | 1014.2 |
| 20260505065227 | 46 | 202 | 3.0 | 8.0 | 0.00 | 0.00 | 0.00 | 90 | 1014.2 |
| 20260505064726 | 45 | 243 | 4.0 | 9.0 | 0.00 | 0.00 | 0.00 | 91 | 1014.3 |
| 20260505064227 | 45 | 228 | 4.0 | 9.0 | 0.00 | 0.00 | 0.00 | 92 | 1014.3 |
| 20260505063728 | 44 | 262 | 4.0 | 7.0 | 0.00 | 0.00 | 0.00 | 94 | 1014.2 |
| 20260505062729 | 43 | 248 | 4.0 | 7.0 | 0.00 | 0.00 | 0.00 | 94 | 1014.2 |
| 20260505062225 | 43 | 247 | 1.0 | 7.0 | 0.00 | 0.00 | 0.00 | 94 | 1014.2 |
| 20260505061727 | 42 | 216 | 3.0 | 7.0 | 0.00 | 0.00 | 0.00 | 94 | 1014.1 |
| 20260505061224 | 42 | 250 | 2.0 | 7.0 | 0.00 | 0.00 | 0.00 | 94 | 1014.2 |
| 20260505060727 | 42 | 286 | 2.0 | 7.0 | 0.00 | 0.00 | 0.00 | 94 | 1014.2 |
| 20260505060226 | 41 | 258 | 4.0 | 7.0 | 0.00 | 0.00 | 0.00 | 94 | 1014.2 |
| 20260505055729 | 41 | 295 | 2.0 | 7.0 | 0.00 | 0.00 | 0.00 | 94 | 1014.2 |
| 20260505055227 | 41 | 251 | 4.0 | 7.0 | 0.00 | 0.00 | 0.00 | 94 | 1014.1 |
| 20260505054225 | 40 | 282 | 3.0 | 7.0 | 0.00 | 0.00 | 0.00 | 94 | 1014.0 |
| 20260505053226 | 40 | 265 | 2.0 | 6.0 | 0.00 | 0.00 | 0.00 | 93 | 1014.0 |
| 20260505052225 | 40 | 279 | 2.0 | 8.0 | 0.00 | 0.00 | 0.00 | 93 | 1013.9 |
| 20260505051726 | 40 | 255 | 4.0 | 8.0 | 0.00 | 0.00 | 0.00 | 93 | 1014.1 |
| 20260505051228 | 40 | 241 | 3.0 | 7.0 | 0.00 | 0.00 | 0.00 | 93 | 1014.0 |
| 20260505050727 | 40 | 245 | 3.0 | 7.0 | 0.00 | 0.00 | 0.00 | 93 | 1013.9 |
| 20260505050225 | 40 | 262 | 4.0 | 7.0 | 0.00 | 0.00 | 0.00 | 93 | 1013.9 |
| 20260505041726 | 40 | 251 | 3.0 | 6.0 | 0.00 | 0.00 | 0.00 | 92 | 1013.8 |
| 20260505041225 | 40 | 251 | 3.0 | 6.0 | 0.00 | 0.00 | 0.00 | 92 | 1013.7 |
| 20260505040225 | 40 | 235 | 3.0 | 7.0 | 0.00 | 0.00 | 0.00 | 92 | 1013.8 |
| 20260505035729 | 40 | 252 | 4.0 | 7.0 | 0.00 | 0.00 | 0.00 | 92 | 1013.7 |
| 20260505035225 | 40 | 293 | 2.0 | 7.0 | 0.00 | 0.00 | 0.00 | 92 | 1013.8 |
| 20260505034227 | 40 | 262 | 3.0 | 6.0 | 0.00 | 0.00 | 0.00 | 92 | 1013.9 |
| 20260505033726 | 40 | 247 | 3.0 | 6.0 | 0.00 | 0.00 | 0.00 | 92 | 1013.8 |
| 20260505032727 | 41 | 295 | 2.0 | 7.0 | 0.00 | 0.00 | 0.00 | 92 | 1013.7 |
| 20260505032225 | 41 | 265 | 2.0 | 7.0 | 0.00 | 0.00 | 0.00 | 92 | 1013.7 |
| 20260505031726 | 41 | 264 | 2.0 | 7.0 | 0.00 | 0.00 | 0.00 | 92 | 1013.7 |
| 20260505030725 | 41 | 254 | 2.0 | 6.0 | 0.00 | 0.00 | 0.00 | 91 | 1013.8 |
| 20260505030227 | 41 | 259 | 3.0 | 6.0 | 0.00 | 0.00 | 0.00 | 92 | 1013.9 |
| 20260505025726 | 41 | 274 | 3.0 | 6.0 | 0.00 | 0.00 | 0.00 | 91 | 1013.9 |
| 20260505025225 | 41 | 266 | 3.0 | 6.0 | 0.00 | 0.00 | 0.00 | 91 | 1013.9 |
| 20260505024726 | 41 | 255 | 2.0 | 6.0 | 0.00 | 0.00 | 0.00 | 91 | 1014.0 |
| 20260505024227 | 41 | 271 | 3.0 | 6.0 | 0.00 | 0.00 | 0.00 | 91 | 1014.0 |
| 20260505023726 | 41 | 254 | 2.0 | 6.0 | 0.00 | 0.00 | 0.00 | 91 | 1014.0 |
| 20260505023225 | 41 | 251 | 3.0 | 6.0 | 0.00 | 0.00 | 0.00 | 91 | 1013.9 |
| 20260505022726 | 42 | 300 | 4.0 | 6.0 | 0.00 | 0.00 | 0.00 | 91 | 1014.0 |
| 20260505022228 | 42 | 282 | 3.0 | 7.0 | 0.00 | 0.00 | 0.00 | 91 | 1014.0 |
| 20260505021226 | 42 | 257 | 4.0 | 7.0 | 0.00 | 0.00 | 0.00 | 90 | 1014.1 |
| 20260505020725 | 42 | 278 | 4.0 | 7.0 | 0.00 | 0.00 | 0.00 | 90 | 1014.0 |
| 20260505015726 | 42 | 251 | 2.0 | 7.0 | 0.00 | 0.00 | 0.00 | 89 | 1014.1 |
| 20260505015231 | 43 | 261 | 4.0 | 7.0 | 0.00 | 0.00 | 0.00 | 89 | 1014.1 |
| 20260505014729 | 43 | 266 | 3.0 | 7.0 | 0.00 | 0.00 | 0.00 | 89 | 1014.1 |
| 20260505014225 | 43 | 264 | 3.0 | 7.0 | 0.00 | 0.00 | 0.00 | 89 | 1014.2 |
| 20260505013727 | 43 | 261 | 2.0 | 6.0 | 0.00 | 0.00 | 0.00 | 88 | 1014.3 |
| 20260505013226 | 44 | 261 | 2.0 | 6.0 | 0.00 | 0.00 | 0.00 | 88 | 1014.3 |
| 20260505012726 | 44 | 261 | 2.0 | 6.0 | 0.00 | 0.00 | 0.00 | 88 | 1014.3 |
| 20260505012228 | 44 | 261 | 2.0 | 5.0 | 0.00 | 0.01 | 0.00 | 88 | 1014.4 |
| 20260505011727 | 44 | 261 | 2.0 | 6.0 | 0.00 | 0.01 | 0.00 | 87 | 1014.4 |
| 20260505011226 | 45 | 261 | 3.0 | 6.0 | 0.00 | 0.01 | 0.00 | 87 | 1014.4 |
| 20260505010726 | 45 | 261 | 2.0 | 7.0 | 0.00 | 0.01 | 0.00 | 87 | 1014.4 |
| 20260505010225 | 45 | 290 | 3.0 | 7.0 | 0.00 | 0.01 | 0.00 | 87 | 1014.5 |
| 20260505005727 | 46 | 276 | 2.0 | 6.0 | 0.00 | 0.01 | 0.00 | 87 | 1014.3 |
| 20260505005227 | 46 | 275 | 2.0 | 6.0 | 0.00 | 0.01 | 0.00 | 86 | 1014.3 |
| 20260505004725 | 46 | 235 | 3.0 | 7.0 | 0.00 | 0.01 | 0.00 | 86 | 1014.3 |
| 20260505004225 | 46 | 265 | 3.0 | 7.0 | 0.00 | 0.01 | 0.00 | 86 | 1014.4 |
| 20260505003731 | 47 | 302 | 3.0 | 7.0 | 0.00 | 0.01 | 0.00 | 85 | 1014.3 |
| 20260505003227 | 47 | 265 | 3.0 | 9.0 | 0.00 | 0.01 | 0.00 | 85 | 1014.3 |
| 20260505002730 | 47 | 230 | 5.0 | 9.0 | 0.00 | 0.01 | 0.00 | 85 | 1014.4 |
| 20260505002227 | 47 | 219 | 4.0 | 7.0 | 0.00 | 0.01 | 0.00 | 84 | 1014.5 |
| 20260505001725 | 48 | 282 | 2.0 | 8.0 | 0.00 | 0.01 | 0.00 | 84 | 1014.4 |
| 20260505001225 | 48 | 240 | 4.0 | 12.0 | 0.00 | 0.01 | 0.00 | 83 | 1014.4 |
| 20260505000726 | 48 | 259 | 3.0 | 12.0 | 0.00 | 0.01 | 0.00 | 84 | 1014.4 |
| 20260505000226 | 48 | 250 | 5.0 | 9.0 | 0.00 | 0.01 | 0.00 | 84 | 1014.4 |
| 20260504235725 | 48 | 250 | 4.0 | 12.0 | 0.00 | 0.01 | 0.00 | 85 | 1014.4 |
| 20260504235227 | 48 | 210 | 6.0 | 12.0 | 0.00 | 0.01 | 0.00 | 85 | 1014.4 |
| 20260504234227 | 48 | 220 | 4.0 | 9.0 | 0.00 | 0.01 | 0.00 | 86 | 1014.4 |
| 20260504233729 | 49 | 247 | 3.0 | 8.0 | 0.00 | 0.01 | 0.00 | 86 | 1014.5 |
| 20260504233225 | 49 | 258 | 3.0 | 6.0 | 0.00 | 0.01 | 0.00 | 86 | 1014.5 |
| 20260504232725 | 49 | 243 | 2.0 | 7.0 | 0.00 | 0.01 | 0.00 | 86 | 1014.4 |
| 20260504230727 | 49 | 235 | 2.0 | 7.0 | 0.00 | 0.01 | 0.00 | 88 | 1014.4 |
| 20260504225725 | 48 | 238 | 3.0 | 9.0 | 0.00 | 0.02 | 0.02 | 89 | 1014.5 |
| 20260504225226 | 48 | 235 | 3.0 | 9.0 | 0.00 | 0.02 | 0.02 | 90 | 1014.5 |
| 20260504224725 | 48 | 248 | 2.0 | 8.0 | 0.00 | 0.02 | 0.02 | 90 | 1014.4 |
| 20260504224226 | 48 | 248 | 3.0 | 8.0 | 0.00 | 0.02 | 0.02 | 90 | 1014.5 |
| 20260504223718 | 48 | 228 | 4.0 | 7.0 | 0.00 | 0.02 | 0.02 | 89 | 1014.4 |
| 20260504223219 | 48 | 274 | 3.0 | 6.0 | 0.00 | 0.02 | 0.02 | 89 | 1014.6 |
| 20260504222714 | 49 | 252 | 3.0 | 7.0 | 0.00 | 0.02 | 0.02 | 88 | 1014.5 |
| 20260504221711 | 49 | 271 | 3.0 | 6.0 | 0.00 | 0.02 | 0.02 | 87 | 1014.6 |
| 20260504220203 | 50 | 281 | 3.0 | 6.0 | 0.00 | 0.03 | 0.02 | 87 | 1014.6 |
| 20260504215703 | 50 | 250 | 3.0 | 8.0 | 0.00 | 0.03 | 0.02 | 87 | 1014.6 |
| 20260504215202 | 50 | 231 | 3.0 | 8.0 | 0.00 | 0.03 | 0.02 | 86 | 1014.6 |
| 20260504214644 | 50 | 268 | 3.0 | 7.0 | 0.00 | 0.03 | 0.02 | 86 | 1014.6 |
| 20260504214144 | 50 | 252 | 3.0 | 6.0 | 0.00 | 0.03 | 0.02 | 85 | 1014.7 |
| 20260504213643 | 51 | 247 | 2.0 | 6.0 | 0.00 | 0.03 | 0.02 | 85 | 1014.7 |
| 20260504212631 | 51 | 282 | 2.0 | 5.0 | 0.00 | 0.04 | 0.02 | 84 | 1014.7 |
| 20260504212127 | 51 | 254 | 2.0 | 6.0 | 0.00 | 0.04 | 0.02 | 83 | 1014.7 |
| 20260504211628 | 52 | 254 | 2.0 | 6.0 | 0.00 | 0.04 | 0.02 | 83 | 1014.7 |
| 20260504211127 | 52 | 255 | 2.0 | 6.0 | 0.00 | 0.04 | 0.02 | 82 | 1014.6 |
| 20260504210127 | 53 | 264 | 3.0 | 8.0 | 0.00 | 0.04 | 0.02 | 81 | 1014.6 |
| 20260504205627 | 53 | 238 | 3.0 | 8.0 | 0.00 | 0.04 | 0.02 | 80 | 1014.7 |
| 20260504205128 | 53 | 209 | 4.0 | 7.0 | 0.00 | 0.04 | 0.02 | 80 | 1014.7 |
| 20260504204129 | 54 | 250 | 3.0 | 7.0 | 0.00 | 0.05 | 0.02 | 79 | 1014.7 |
| 20260504203627 | 54 | 214 | 3.0 | 7.0 | 0.00 | 0.05 | 0.02 | 79 | 1014.6 |
| 20260504203128 | 54 | 228 | 4.0 | 8.0 | 0.00 | 0.05 | 0.02 | 79 | 1014.6 |
| 20260504202629 | 54 | 241 | 3.0 | 8.0 | 0.00 | 0.05 | 0.02 | 79 | 1014.6 |
| 20260504201628 | 55 | 333 | 6.0 | 9.0 | 0.00 | 0.05 | 0.02 | 79 | 1014.5 |
| 20260504201128 | 55 | 196 | 5.0 | 9.0 | 0.00 | 0.05 | 0.02 | 78 | 1014.4 |
| 20260504200627 | 55 | 179 | 4.0 | 11.0 | 0.00 | 0.06 | 0.02 | 78 | 1014.4 |
| 20260504200127 | 55 | 175 | 4.0 | 11.0 | 0.00 | 0.06 | 0.02 | 78 | 1014.2 |
| 20260504195633 | 55 | 197 | 5.0 | 9.0 | 0.00 | 0.06 | 0.02 | 78 | 1014.3 |
| 20260504194627 | 55 | 210 | 6.0 | 12.0 | 0.00 | 0.06 | 0.02 | 78 | 1014.3 |
| 20260504194129 | 55 | 165 | 6.0 | 12.0 | 0.00 | 0.06 | 0.02 | 78 | 1014.3 |
| 20260504193627 | 55 | 183 | 4.0 | 13.0 | 0.00 | 0.06 | 0.02 | 77 | 1014.3 |
| 20260504193127 | 55 | 202 | 4.0 | 13.0 | 0.00 | 0.06 | 0.02 | 77 | 1014.2 |
| 20260504192628 | 55 | 199 | 4.0 | 9.0 | 0.00 | 0.07 | 0.02 | 77 | 1014.2 |
| 20260504192128 | 56 | 169 | 5.0 | 12.0 | 0.00 | 0.07 | 0.02 | 77 | 1014.1 |
| 20260504191629 | 56 | 176 | 6.0 | 12.0 | 0.00 | 0.08 | 0.02 | 76 | 1014.1 |
| 20260504191129 | 56 | 185 | 6.0 | 12.0 | 0.00 | 0.09 | 0.02 | 76 | 1014.1 |
| 20260504190628 | 56 | 204 | 6.0 | 13.0 | 0.00 | 0.09 | 0.02 | 76 | 1014.1 |
| 20260504190127 | 56 | 185 | 7.0 | 13.0 | 0.00 | 0.09 | 0.02 | 76 | 1014.1 |
| 20260504185627 | 56 | 166 | 4.0 | 9.0 | 0.00 | 0.09 | 0.02 | 75 | 1014.1 |
| 20260504185127 | 56 | 171 | 4.0 | 9.0 | 0.00 | 0.09 | 0.02 | 75 | 1014.1 |
| 20260504184627 | 57 | 227 | 4.0 | 11.0 | 0.00 | 0.09 | 0.02 | 74 | 1014.0 |
| 20260504184127 | 57 | 188 | 4.0 | 12.0 | 0.00 | 0.10 | 0.02 | 74 | 1014.1 |
| 20260504183128 | 57 | 176 | 7.0 | 12.0 | 0.00 | 0.10 | 0.02 | 74 | 1014.0 |
| 20260504182626 | 58 | 192 | 4.0 | 11.0 | 0.00 | 0.10 | 0.02 | 75 | 1014.0 |
| 20260504182127 | 57 | 189 | 2.0 | 9.0 | 0.00 | 0.11 | 0.02 | 75 | 1013.9 |
| 20260504181627 | 57 | 148 | 2.0 | 12.0 | 0.00 | 0.11 | 0.02 | 74 | 1014.0 |
| 20260504181128 | 57 | 196 | 6.0 | 12.0 | 0.00 | 0.12 | 0.02 | 74 | 1013.9 |
| 20260504180628 | 58 | 224 | 4.0 | 8.0 | 0.00 | 0.12 | 0.02 | 74 | 1014.0 |
| 20260504180126 | 57 | 179 | 4.0 | 11.0 | 0.00 | 0.12 | 0.02 | 73 | 1014.0 |
| 20260504175627 | 58 | 212 | 4.0 | 11.0 | 0.00 | 0.13 | 0.02 | 73 | 1013.9 |
| 20260504174627 | 58 | 193 | 5.0 | 12.0 | 0.00 | 0.13 | 0.02 | 73 | 1014.0 |
| 20260504174127 | 58 | 230 | 7.0 | 12.0 | 0.00 | 0.13 | 0.02 | 73 | 1014.0 |